Simultaneous Nadir Overpasses (SNOs) Predictions

Prediction of SNOs between METOP-B and NOAA-19 Satellite Orbit:

Table of predicted SNOs for the next 14.0 days since TLE Epoch: 3/21/2020
Index Date (METOP-B) Time (METOP-B) Lat,Lon (METOP-B) SZA (METOP-B ) Date (NOAA-19) Time (NOAA-19) Lat,Lon (NOAA-19) SZA (NOAA-19 ) Distance(km) Time Diff (sec)
1 03/25/2020 11:41:00 -79.86,-154.21 101.70 03/25/2020 11:39:55 -79.89,-154.29 101.70 3.02 65
2 03/25/2020 12:31:40 79.88, 13.28 78.32 03/25/2020 12:30:51 79.87, 13.18 78.29 2.22 49
3 03/25/2020 13:22:22 -79.85,-179.67 101.75 03/25/2020 13:21:55 -79.87,-179.59 101.73 2.64 27
4 03/25/2020 14:13:02 79.87, -12.18 78.27 03/25/2020 14:12:51 79.85, -12.12 78.26 1.92 11
5 03/25/2020 15:03:43 -79.87, 155.17 101.75 03/25/2020 15:03:55 -79.86, 155.11 101.76 2.04 12
6 03/25/2020 15:54:24 79.86, -37.64 78.22 03/25/2020 15:54:52 79.86, -37.72 78.23 1.89 28
7 03/25/2020 16:45:05 -79.86, 129.71 101.79 03/25/2020 16:45:55 -79.84, 129.80 101.79 2.83 50




NCC Satellite Simultaneous Nadir Overpasses (SNOs) Prediction Service
